Location: ????????
(55.7555°N, 38.7487°E)
Time: 06:04:45
(UTC+00:00)

Daily predictions for brighter satellites

Satellite Brightness Start Highest point End
(mag) Time Altitude Azimuth Time Altitude Azimuth Time Altitude Azimuth
Cosmos 44 3.7 13:33:20 10° NW 13:38:30 79° SW 13:43:51 10° SE
Cosmos 304 Rocket 4.3 13:34:40 10° SW 13:39:22 59° WNW 13:44:07 10° NNE
Cosmos 1862 4.3 13:36:38 10° NNW 13:40:10 46° W 13:43:40 10° S
Cosmos 1656 Rocket 3.8 13:35:53 10° SW 13:41:32 82° NW 13:47:16 10° NNE
Cosmos 2151 4.4 13:41:47 10° NNE 13:44:23 16° ENE 13:46:58 10° E
Cosmos 1570 Rocket 4.4 13:39:29 10° NNW 13:44:36 43° NE 13:49:40 10° ESE
Cosmos 1943 Rocket 3.3 13:40:24 10° WSW 13:45:26 34° NW 13:50:28 10° NNE
USA 290 4.0 13:43:45 10° N 13:45:46 15° NE 13:47:47 10° E
DMSP B5D2-2 4.2 13:42:19 10° NNE 13:47:33 84° WNW 13:52:44 10° SSW
Cosmos 1455 Rocket 3.6 13:44:29 10° SSE 13:48:29 37° E 13:52:31 10° NNE
Cosmos 1814 Rocket 4.4 13:44:10 10° NNW 13:49:31 73° WSW 13:54:49 10° SSE
NOSS 3-3 (A) 4.4 13:44:49 10° NW 13:51:30 64° NNE 13:59:37 10° ESE
Cosmos 1607 4.2 13:46:01 10° NW 13:52:04 52° NNE 13:58:10 10° ESE
Meteor 1-28 Rocket 3.9 13:51:10 10° NE 13:54:06 27° E 13:57:01 10° SSE
CZ-2D R/B 3.9 13:52:32 10° ESE 13:55:04 22° ENE 13:57:36 10° N
Cosmos 1346 Rocket 3.7 13:51:55 10° NNW 13:55:30 49° W 13:59:04 10° S
Cosmos 1850 Rocket 4.0 13:50:49 10° SSW 13:55:58 72° ESE 14:01:08 10° NNE
Lacrosse 5 rocket 3.2 13:54:39 10° SSE 13:56:48 15° SE 13:58:57 10° E
Cosmos 1782 4.4 13:56:09 10° ESE 13:57:51 13° E 13:59:07 11° ENE
Cosmos 2263 4.4 13:53:46 10° SSW 13:59:27 65° ESE 14:05:12 10° NE
Cosmos 1743 3.8 13:57:23 10° NNE 13:59:37 17° ENE 14:01:51 10° ESE
GEOS 3 Rocket 4.2 13:58:06 10° NE 14:03:15 45° SE 14:08:24 10° SSW
SMAP 3.2 14:00:04 10° SE 14:04:35 52° ENE 14:09:08 10° N
Cosmos 2297 3.7 13:58:58 10° SSW 14:04:39 82° ESE 14:10:20 10° NE
Aureole 3 Rocket 4.2 14:00:40 10° SSW 14:04:51 53° WNW 14:10:40 10° N
YAOGAN 1 3.9 14:04:18 10° E 14:07:09 18° NE 14:10:01 10° NNE
CENTAUR R/B 3.0 14:03:27 10° SSW 14:08:50 43° ESE 14:14:57 12° NE
Meteor 2-1 Rocket 4.3 14:04:52 10° S 14:10:49 80° ESE 14:16:42 10° NNE
Landsat 7 4.0 14:07:00 10° SE 14:11:28 47° ENE 14:15:56 10° N
SJ 16-02 3.0 14:08:47 10° WSW 14:12:29 27° NW 14:16:12 10° N
Sich 1 Rocket 3.9 14:09:01 10° SSW 14:13:33 74° WNW 14:18:05 10° N
Cosmos 2297 Rocket 2.4 14:09:18 10° NNW 14:14:51 49° NE 14:20:20 10° ESE
Lacrosse 4 Rocket 2.1 14:11:43 10° S 14:15:25 34° ESE 14:18:11 15° ENE
Cosmos 2208 Rocket 4.1 14:10:48 10° NNW 14:15:51 51° NE 14:20:54 10° SE
IRS-1C 4.2 14:10:47 10° SE 14:15:58 57° ENE 14:21:12 10° NNW
SPOT 1/Viking Rocket 4.2 14:13:00 10° ESE 14:17:36 33° ENE 14:22:14 10° N
USA 215 3.3 14:11:30 10° E 14:18:04 81° N 14:24:40 10° W
Cosmos 1758 Rocket 3.8 14:15:51 10° N 14:20:01 43° ENE 14:24:08 10° SE
Cosmos 773 Rocket 4.1 14:15:13 10° NNW 14:20:19 54° NE 14:25:27 10° SE
ATLAS CENTAUR R/B 0.9 14:17:17 10° NW 14:20:33 51° NE 14:23:39 10° ESE
Cosmos 1400 Rocket 4.3 14:18:20 10° SW 14:21:42 32° WNW 14:25:03 10° N
MOS 1 Rocket 3.7 14:17:09 10° SE 14:21:44 44° ENE 14:26:35 10° N
ARIANE 5 R/B 2.5 14:16:54 10° SE 14:21:53 61° ENE 14:26:56 10° NNW
IGS 5A 3.5 14:19:06 10° SSE 14:23:04 79° WSW 14:27:04 10° NNW
AQUARIUS 4.4 14:19:00 10° SE 14:23:12 46° ENE 14:27:26 10° N
Cosmos 2219 4.4 14:19:58 10° NNW 14:24:33 24° NNE 14:27:34 16° ENE
Okean 2 Rocket 3.9 14:21:30 10° SSW 14:25:45 50° WNW 14:30:02 10° N
Cosmos 2084 Rocket 3.7 14:22:02 10° NW 14:26:08 48° NNE 14:29:24 15° E
Cosmos 2026 Rocket 4.2 14:20:26 10° NNW 14:26:36 76° W 14:32:52 10° S
UNK 4.1 14:22:22 10° NNE 14:26:47 44° E 14:31:10 10° S
Okean 1 Rocket 3.7 14:22:57 10° SSW 14:27:11 56° WNW 14:31:28 10° N
Cosmos 2098 Rocket 4.0 14:24:08 10° SE 14:27:24 25° E 14:30:30 13° NE
Cosmos 2084 4.1 14:24:18 10° SSW 14:28:13 39° SE 14:30:44 19° ENE
Iridium 51 3.7 14:27:06 10° S 14:30:08 55° E 14:33:16 10° NNE
CZ-2D R/B 4.3 14:27:12 10° ESE 14:30:50 29° ENE 14:34:28 10° N
Cosmos 1634 Rocket 4.0 14:24:50 10° S 14:30:56 63° E 14:37:02 10° NNE
NOSS 3-3 (C) 4.4 14:24:14 10° NW 14:31:08 77° NE 14:39:31 10° ESE
Radarsat 4.5 14:28:06 10° SSE 14:33:17 81° ENE 14:38:30 10° NNW
USA 281 4.4 14:32:29 16° ENE 14:35:40 23° NNE 14:40:35 10° NNW
SL-08 ROCKET BODY 4.3 14:36:27 10° N 14:42:22 71° ENE 14:48:20 10° SSE
Cosmos 2228 2.9 14:40:02 10° S 14:44:12 66° E 14:48:27 10° NNE
Cosmos 1626 Rocket 3.4 14:41:09 10° N 14:45:33 81° ENE 14:49:52 10° SSE
Cosmos 405 Rocket 2.2 14:42:55 10° NNW 14:46:13 86° WSW 14:49:28 10° SSE
BREEZE-M DEB (TANK) 3.6 14:43:50 10° WSW 14:46:32 37° SSE 14:52:00 13° ESE
Cosmos 1092 Rocket 4.5 14:40:30 10° NNW 14:46:37 64° W 14:52:39 10° S
Thor Agena Rocket 4.1 14:41:52 10° S 14:47:02 63° WSW 14:52:13 10° NNW
CZ-4C R/B 2.7 14:43:55 10° NW 14:50:14 75° NE 14:58:21 10° ESE
Cosmos 2279 Rocket 4.0 14:45:25 10° S 14:51:31 63° E 14:57:40 10° NNE
Okean 1-7 Rocket 3.9 14:47:20 10° N 14:51:33 41° ENE 14:55:42 10° SE
SJ-6F 4.2 14:49:35 10° SSE 14:53:33 71° ENE 14:57:33 10° NNW
Intercosmos 24 4.1 14:49:17 10° NNW 14:53:58 76° W 14:57:37 10° S
Cosmos 1844 Rocket 4.2 14:50:05 10° NNW 14:54:08 20° NNE 14:55:45 18° NE
NOSS 3-2 (A) 3.8 14:52:25 10° S 14:57:07 37° ESE 14:59:40 25° ENE
Cosmos 1356 Rocket 3.3 14:53:24 10° SSW 14:57:26 87° W 15:01:14 12° NNE
Cosmos 292 Rocket 3.9 14:52:56 10° SW 14:57:44 73° WNW 15:01:41 15° NNE
Cosmos 2263 Rocket 2.8 14:54:56 10° NNW 15:00:09 36° NE 15:02:25 26° E
IRIDIUM 104 4.3 14:56:11 10° N 15:01:25 65° E 15:06:36 10° SSE
Cosmos 1315 Rocket 2.9 14:59:39 10° SSW 15:03:28 73° WNW 15:06:48 14° N
Resurs 1-3 3.8 14:59:26 10° SE 15:03:31 43° ENE 15:07:37 10° N
BlueWalker 3 3.3 15:00:45 10° W 15:04:04 34° SSW 15:06:43 14° SE
Cosmos 2227 Rocket 2.3 15:00:01 10° NNW 15:05:33 52° NE 15:09:24 20° ESE
IRS-P3 4.1 15:01:04 10° SSE 15:06:24 87° WSW 15:11:46 10° NNW
Cosmos 1544 Rocket 3.5 15:02:26 10° S 15:06:47 66° E 15:10:12 16° NNE
SL-16 R/B 3.0 15:03:13 10° NNE 15:09:23 64° WNW 15:15:31 10° SW
SKYMED 2 4.1 15:09:23 35° E 15:09:49 36° E 15:13:50 10° SSE
IRAS Rocket 4.2 15:05:12 10° SE 15:10:34 57° ENE 15:15:56 10° NNW
IRIDIUM 114 4.2 15:05:19 10° N 15:10:34 75° E 15:15:48 10° S
SJ-12 4.4 15:08:42 10° S 15:12:26 57° WSW 15:16:11 10° NNW
Cosmos 2369 Rocket 3.1 15:08:41 10° WSW 15:14:04 43° NW 15:18:24 16° NNE
Spot 4 Rocket 3.9 15:12:57 10° SSE 15:18:01 67° ENE 15:23:06 10° NNW
Cosmos 1867 3.5 15:13:58 10° NW 15:19:28 78° NE 15:22:45 25° ESE
IRIDIUM 103 4.2 15:14:29 10° N 15:19:46 87° E 15:25:00 10° S
USA 290 2.2 15:17:18 10° NNW 15:20:35 82° WSW 15:21:49 35° SSE
Cosmos 2278 Rocket 4.0 15:16:53 10° WNW 15:20:55 19° NNW 15:23:47 14° NNE
Meteor 1-20 Rocket 4.1 15:15:24 10° NNW 15:20:57 87° ENE 15:26:25 10° SSE
Resurs 01 Rocket 3.0 15:23:11 23° NNE 15:23:11 23° NNE 15:25:15 10° N
Cosmos 2151 2.9 15:17:38 10° NNW 15:21:49 86° WSW 15:25:58 10° S
Cosmos 2142 Rocket 4.4 15:15:40 10° S 15:22:02 77° E 15:28:27 10° NNE
Cosmos 1602 Rocket 3.6 15:18:20 10° NNW 15:22:47 82° W 15:27:10 10° S
Cosmos 2266 Rocket 3.9 15:17:06 10° N 15:23:23 86° E 15:29:30 10° S
NOSS 2-2 (C) 3.2 15:25:42 10° SW 15:28:13 48° S 15:28:13 48° S
Cosmos 1943 Rocket 4.0 15:27:08 10° NW 15:30:51 18° NNW 15:33:07 14° NNE
Cosmos 1697 Rocket 4.0 15:26:22 10° SSE 15:29:16 23° SE 15:29:16 23° SE
Cosmos 1782 2.6 15:28:33 10° SSW 15:32:10 74° WNW 15:33:16 42° N
Lacrosse 5 rocket 1.3 15:29:34 10° SW 15:33:05 52° SSE 15:33:05 52° SSE
Cosmos 1743 3.3 15:30:18 10° NNW 15:33:28 47° W 15:36:36 10° S
Cosmos 1777 Rocket 4.2 15:29:32 10° S 15:34:32 46° ESE 15:34:54 45° E
Cosmos 1607 4.3 15:33:25 10° NW 15:39:33 64° SW 15:45:44 10° SSE
USA 81 4.2 15:34:47 10° N 15:39:37 48° ENE 15:39:37 48° ENE
COSMO-SKYMED 1 4.0 15:42:45 23° SSE 15:42:45 23° SSE 15:44:30 10° S
GEOS 3 Rocket 3.9 15:39:06 34° NE 15:41:25 64° NNW 15:46:43 10° WSW
YAOGAN 1 2.4 15:38:13 10° SSE 15:42:28 87° WSW 15:46:47 10° NNW
Meteor 1-25 Rocket 4.3 15:39:38 10° NNW 15:45:31 82° WSW 15:51:19 10° S
Cosmos 1486 Rocket 3.9 15:41:03 10° SSW 15:46:12 68° ESE 15:47:12 55° ENE
SL-19 R/B 4.1 15:41:39 10° SSE 15:47:00 87° WSW 15:52:39 10° NNW
PSLV R/B 3.3 15:45:17 25° SSE 15:47:33 85° WSW 15:51:38 10° NNW
OceanSat 1 rocket 4.5 15:43:46 10° SSE 15:48:33 88° ENE 15:53:19 10° NNW
Cosmos 2082 4.1 15:43:23 10° NNW 15:48:44 42° NE 15:48:44 42° NE
Lacrosse 4 Rocket 2.0 15:49:15 10° WSW 15:53:11 46° NW 15:53:40 43° NNW
ATLAS CENTAUR R/B 2.8 15:52:27 10° WNW 15:55:14 26° SW 15:56:00 23° SSW
SPOT 1/Viking Rocket 4.2 15:51:40 10° S 15:56:46 55° W 16:01:55 10° NNW
Cosmos 1825 Rocket 3.7 15:53:21 10° NNW 15:57:44 73° W 16:02:03 10° S
BREEZE-M DEB (TANK) 4.1 15:54:21 10° W 15:57:55 67° S 16:00:56 39° ESE
Cosmos 2297 Rocket 3.2 15:53:31 10° NW 15:58:54 45° WSW 16:04:14 10° S
CENTAUR R/B 2.8 15:52:59 10° WSW 15:59:06 71° NNW 16:02:03 39° NE
Cosmos 1244 Rocket 4.5 15:53:33 10° N 15:59:49 58° ENE 16:00:34 54° E
NOAA 6 3.9 15:54:49 10° SSE 15:59:57 86° WSW 16:05:06 10° NNW
USA 215 3.3 15:58:37 40° ESE 16:01:12 78° SSW 16:07:48 10° WNW
Cosmos 1655 Rocket 3.9 15:57:14 10° NNW 16:03:33 89° W 16:09:48 10° S
Cosmos 2098 Rocket 3.9 16:00:59 10° SW 16:04:47 46° WNW 16:07:34 20° N
Cosmos 2084 Rocket 4.0 16:00:54 10° WNW 16:05:00 52° SW 16:05:17 51° SSW
Cosmos 2084 3.9 16:02:40 10° WSW 16:06:27 54° NW 16:06:27 54° NW
Meteor 1-5 Rocket 4.1 16:02:50 10° NNW 16:08:09 80° WSW 16:13:31 10° S
Cosmos 2219 3.3 16:04:09 10° NNW 16:09:29 59° NNE 16:09:29 59° NNE
Cosmos 1656 3.7 16:10:42 10° SW 16:16:20 77° NW 16:17:23 60° NNE
Cosmos 1241 Rocket 4.3 16:11:27 10° SW 16:17:50 89° SE 16:18:47 67° NE
USA 281 3.4 16:19:21 51° NE 16:19:21 51° NE 16:25:21 10° NNW
Meteor 2-10 4.3 16:25:38 10° NNW 16:29:55 60° NNW 16:29:55 60° NNW
Cosmos 1538 Rocket 4.4 16:31:52 10° NNW 16:36:16 61° NW 16:36:16 61° NW
CZ-4C R/B 3.7 16:32:06 10° WNW 16:38:34 46° SW 16:44:46 17° S
Cosmos 1844 Rocket 4.0 16:34:12 10° NNW 16:37:23 30° N 16:37:23 30° N
Meteor 2-20 4.4 16:35:11 10° SSW 16:40:48 75° SSW 16:40:48 75° SSW
Cosmos 2360 4.4 16:36:32 10° SW 16:42:03 70° WNW 16:42:03 70° WNW
NOSS 3-2 (C) 4.0 16:38:43 10° SW 16:41:55 40° SSW 16:41:55 40° SSW
Cosmos 2263 Rocket 2.4 16:38:51 10° NW 16:44:07 67° W 16:44:07 67° W
NOSS 3-2 (A) 3.5 16:42:05 10° WSW 16:47:02 68° WNW 16:47:02 68° WNW
Cosmos 2227 Rocket 3.3 16:44:15 10° NW 16:49:32 42° WSW 16:51:16 33° SSW
Resurs 01 Rocket 4.0 17:00:35 18° NNW 17:00:35 18° NNW 17:01:49 10° NNW
Cosmos 2369 Rocket 4.1 16:55:25 10° WNW 16:59:34 20° NNW 17:00:10 20° N
Cosmos 2278 Rocket 4.3 17:03:14 10° NNW 17:05:36 17° N 17:05:36 17° N
Lacrosse 5 rocket 4.4 17:06:30 10° W 17:06:42 11° W 17:06:42 11° W
Cosmos 1697 Rocket 4.3 17:08:44 10° SW 17:11:02 26° SW 17:11:02 26° SW
Cosmos 1943 Rocket 4.4 17:12:52 10° NNW 17:14:36 15° NNW 17:14:36 15° NNW
USA 215 4.4 17:45:58 36° WSW 17:45:58 36° WSW 17:50:54 10° WNW
CENTAUR R/B 3.7 17:44:15 10° WNW 17:49:09 42° NW 17:49:09 42° NW
ACS3 Solar Sail 4.3 23:39:05 10° NNE 23:39:55 14° NNE 23:39:55 14° NNE
